This is the latest recevied weather packets stored in our database for station/object AI5BL. If no packets are shown the sender has not sent any weather packets the latest 10 day(s).
| Time | Temp. | Humidity | Pressure | Rain* | Wind** | Luminosity | Snow |
|---|---|---|---|---|---|---|---|
| 1788015824 | 30.56° C | 64% | 1020.8 hPa | 0 mm | - | 477 W/m² | - |
| 1788015519 | 30.56° C | 68% | 1020.6 hPa | 0 mm | - | 460 W/m² | - |
| 1788015214 | 31.11° C | 63% | 1020.7 hPa | 0 mm | - | 449 W/m² | - |
| 1788014912 | 30.56° C | 66% | 1020.8 hPa | 0 mm | - | 433 W/m² | - |
| 1788014608 | 30.56° C | 69% | 1020.7 hPa | 0 mm | - | 419 W/m² | - |
| 1788014303 | 30° C | 65% | 1020.6 hPa | 0 mm | - | 401 W/m² | - |
| 1788013998 | 29.44° C | 66% | 1020.8 hPa | 0 mm | - | 386 W/m² | - |
| 1788013693 | 28.89° C | 69% | 1020.8 hPa | 0 mm | - | 367 W/m² | - |
| 1788013392 | 28.89° C | 70% | 1020.7 hPa | 0 mm | - | 355 W/m² | - |
| 1788013092 | 28.33° C | 72% | 1020.8 hPa | 0 mm | - | 341 W/m² | - |
| 1788012791 | 28.33° C | 74% | 1020.8 hPa | 0 mm | - | 323 W/m² | - |
| 1788012486 | 27.78° C | 75% | 1020.7 hPa | 0 mm | - | 308 W/m² | - |
| 1788012186 | 27.78° C | 76% | 1020.6 hPa | 0 mm | - | 294 W/m² | - |
| 1788011885 | 27.22° C | 75% | 1020.5 hPa | 0 mm | - | 274 W/m² | - |
| 1788011584 | 27.22° C | 75% | 1020.7 hPa | 0 mm | - | 262 W/m² | - |
| 1788011280 | 26.11° C | 78% | 1020.5 hPa | 0 mm | - | 249 W/m² | - |
| 1788010978 | 26.67° C | 76% | 1020.6 hPa | 0 mm | - | 230 W/m² | - |
| 1788010674 | 26.67° C | 78% | 1020.6 hPa | 0 mm | - | 216 W/m² | - |
| 1788010372 | 26.11° C | 80% | 1020.6 hPa | 0 mm | - | 198 W/m² | - |
| 1788010067 | 25.56° C | 80% | 1020.6 hPa | 0 mm | - | 208 W/m² | - |
| 1788009762 | 25° C | 84% | 1020.7 hPa | 0 mm | - | 200 W/m² | - |
| 1788009460 | 24.44° C | 85% | 1020.5 hPa | 0 mm | - | 180 W/m² | - |
| 1788009155 | 23.89° C | 86% | 1020.6 hPa | 0 mm | - | 150 W/m² | - |
| 1788008850 | 23.33° C | 87% | 1020.6 hPa | 0 mm | - | 121 W/m² | - |
| 1788008550 | 22.78° C | 90% | 1020.4 hPa | 0 mm | - | 101 W/m² | - |
* Rain latest hour (hover to see other rain measurements)
** Current wind speed in m/s (hover to see current wind gust speed)